Time,TemperatureF,DewpointF,PressureIn,WindDirection,WindDirectionDegrees,WindSpeedMPH,WindSpeedGustMPH,Humidity,HourlyPrecipIn,Conditions,Clouds,dailyrainin,SoftwareType,DateUTC
2013-02-12 00:01:00,-7.0,-11.0,30.11,NNE,24,2.0,-999.0,81,-99.99,,,-99.99,,2013-02-12 07:01:00,
2013-02-12 00:21:00,-6.0,-10.0,30.12,NNE,24,1.0,-999.0,82,-99.99,,,-99.99,,2013-02-12 07:21:00,
2013-02-12 00:31:00,-5.0,-9.0,30.12,NNE,24,1.0,-999.0,81,-99.99,,,-99.99,,2013-02-12 07:31:00,
2013-02-12 00:41:00,-5.0,-9.0,30.12,NNE,24,1.0,-999.0,81,-99.99,,,-99.99,,2013-02-12 07:41:00,
2013-02-12 00:51:00,-5.0,-9.0,30.13,NNE,24,0.0,-999.0,81,-99.99,,,-99.99,,2013-02-12 07:51:00,
2013-02-12 01:01:00,-6.0,-11.0,30.13,NNE,24,1.0,-999.0,80,-99.99,,,-99.99,,2013-02-12 08:01:00,
2013-02-12 01:11:00,-6.0,-11.0,30.13,NNE,24,1.0,-999.0,80,-99.99,,,-99.99,,2013-02-12 08:11:00,
2013-02-12 01:21:00,-6.0,-10.0,30.14,NNE,24,0.0,-999.0,83,-99.99,,,-99.99,,2013-02-12 08:21:00,
2013-02-12 01:31:00,-5.0,-9.0,30.13,NNE,24,1.0,-999.0,83,-99.99,,,-99.99,,2013-02-12 08:31:00,
2013-02-12 01:41:00,-5.0,-9.0,30.13,NNE,24,1.0,-999.0,83,-99.99,,,-99.99,,2013-02-12 08:41:00,
2013-02-12 01:52:00,-4.0,-8.0,30.13,NNE,24,1.0,-999.0,84,-99.99,,,-99.99,,2013-02-12 08:52:00,
2013-02-12 02:01:00,-3.0,-7.0,30.11,NNE,24,1.0,-999.0,84,-99.99,,,-99.99,,2013-02-12 09:01:00,
2013-02-12 02:11:00,-3.0,-7.0,30.11,NNE,24,1.0,-999.0,84,-99.99,,,-99.99,,2013-02-12 09:11:00,
2013-02-12 02:21:00,-3.0,-7.0,30.12,NNE,24,1.0,-999.0,83,-99.99,,,-99.99,,2013-02-12 09:21:00,
2013-02-12 02:31:00,-2.0,-6.0,30.12,NNE,24,1.0,-999.0,82,-99.99,,,-99.99,,2013-02-12 09:31:00,
2013-02-12 02:41:00,-1.0,-5.0,30.12,NNE,21,1.0,-999.0,83,-99.99,,,-99.99,,2013-02-12 09:41:00,
2013-02-12 02:52:00,-1.0,-5.0,30.12,NNE,21,1.0,-999.0,83,-99.99,,,-99.99,,2013-02-12 09:52:00,
2013-02-12 03:01:00,-1.0,-5.0,30.12,NNE,21,2.0,-999.0,82,-99.99,,,-99.99,,2013-02-12 10:01:00,
2013-02-12 03:11:00,-1.0,-5.0,30.11,NNE,22,3.0,-999.0,81,-99.99,,,-99.99,,2013-02-12 10:11:00,
2013-02-12 03:21:00,-1.0,-5.0,30.11,NNE,22,3.0,-999.0,81,-99.99,,,-99.99,,2013-02-12 10:21:00,
2013-02-12 03:31:00,-2.0,-6.0,30.11,NNE,21,3.0,-999.0,81,-99.99,,,-99.99,,2013-02-12 10:31:00,
2013-02-12 03:43:00,-2.0,-6.0,30.11,NNE,21,3.0,-999.0,81,-99.99,,,-99.99,,2013-02-12 10:43:00,
2013-02-12 03:52:00,-1.0,-5.0,30.12,NNE,17,2.0,-999.0,82,-99.99,,,-99.99,,2013-02-12 10:52:00,
2013-02-12 04:01:00,-1.0,-5.0,30.12,NNE,20,2.0,-999.0,82,-99.99,,,-99.99,,2013-02-12 11:01:00,
2013-02-12 04:11:00,-1.0,-5.0,30.12,NNE,20,2.0,-999.0,82,-99.99,,,-99.99,,2013-02-12 11:11:00,
2013-02-12 04:21:00,0.0,-4.0,30.13,NNE,18,2.0,-999.0,82,-99.99,,,-99.99,,2013-02-12 11:21:00,
2013-02-12 04:31:00,-1.0,-5.0,30.13,NNW,342,3.0,-999.0,81,-99.99,,,-99.99,,2013-02-12 11:31:00,
2013-02-12 04:41:00,-1.0,-5.0,30.13,NNW,342,3.0,-999.0,81,-99.99,,,-99.99,,2013-02-12 11:41:00,
2013-02-12 04:52:00,0.0,-4.0,30.13,North,355,3.0,-999.0,82,-99.99,,,-99.99,,2013-02-12 11:52:00,
2013-02-12 05:01:00,1.0,-3.0,30.15,NNW,333,3.0,-999.0,82,-99.99,,,-99.99,,2013-02-12 12:01:00,
2013-02-12 05:11:00,1.0,-3.0,30.15,North,360,2.0,-999.0,82,-99.99,,,-99.99,,2013-02-12 12:11:00,
2013-02-12 05:21:00,1.0,-3.0,30.15,North,360,2.0,-999.0,82,-99.99,,,-99.99,,2013-02-12 12:21:00,
2013-02-12 05:32:00,0.0,-5.0,30.16,NNE,12,4.0,-999.0,80,-99.99,,,-99.99,,2013-02-12 12:32:00,
2013-02-12 05:41:00,0.0,-5.0,30.16,NNE,12,4.0,-999.0,80,-99.99,,,-99.99,,2013-02-12 12:41:00,
2013-02-12 05:52:00,0.0,-4.0,30.16,NNE,14,3.0,-999.0,82,-99.99,,,-99.99,,2013-02-12 12:52:00,
2013-02-12 06:01:00,-1.0,-5.0,30.16,NNE,15,3.0,-999.0,82,-99.99,,,-99.99,,2013-02-12 13:01:00,
2013-02-12 06:11:00,-1.0,-5.0,30.16,NNE,15,3.0,-999.0,82,-99.99,,,-99.99,,2013-02-12 13:11:00,
2013-02-12 06:21:00,-1.0,-5.0,30.16,NNE,15,3.0,-999.0,82,-99.99,,,-99.99,,2013-02-12 13:21:00,
2013-02-12 06:31:00,0.0,-4.0,30.16,NNE,17,2.0,-999.0,82,-99.99,,,-99.99,,2013-02-12 13:31:00,
2013-02-12 06:41:00,0.0,-4.0,30.16,NNE,17,2.0,-999.0,82,-99.99,,,-99.99,,2013-02-12 13:41:00,
2013-02-12 06:52:00,0.0,-4.0,30.16,NNE,17,1.0,-999.0,82,-99.99,,,-99.99,,2013-02-12 13:52:00,
2013-02-12 07:01:00,0.0,-4.0,30.17,NNW,346,2.0,-999.0,81,-99.99,,,-99.99,,2013-02-12 14:01:00,
2013-02-12 07:11:00,0.0,-4.0,30.17,NNW,346,2.0,-999.0,81,-99.99,,,-99.99,,2013-02-12 14:11:00,
2013-02-12 07:21:00,0.0,-4.0,30.17,North,360,2.0,-999.0,82,-99.99,,,-99.99,,2013-02-12 14:21:00,
2013-02-12 07:31:00,0.0,-4.0,30.18,North,360,2.0,-999.0,82,-99.99,,,-99.99,,2013-02-12 14:31:00,
2013-02-12 07:41:00,0.0,-4.0,30.18,North,360,2.0,-999.0,82,-99.99,,,-99.99,,2013-02-12 14:41:00,
2013-02-12 07:52:00,1.0,-3.0,30.18,NNE,17,3.0,-999.0,82,-99.99,,,-99.99,,2013-02-12 14:52:00,
2013-02-12 08:01:00,0.0,-4.0,30.18,NNE,17,2.0,-999.0,82,-99.99,,,-99.99,,2013-02-12 15:01:00,
2013-02-12 08:11:00,0.0,-4.0,30.17,NNE,17,1.0,-999.0,82,-99.99,,,-99.99,,2013-02-12 15:11:00,
2013-02-12 08:21:00,0.0,-4.0,30.17,NNE,17,1.0,-999.0,82,-99.99,,,-99.99,,2013-02-12 15:21:00,
2013-02-12 08:32:00,1.0,-3.0,30.18,NNE,17,1.0,-999.0,83,-99.99,,,-99.99,,2013-02-12 15:32:00,
2013-02-12 08:41:00,1.0,-3.0,30.18,NNE,17,1.0,-999.0,83,-99.99,,,-99.99,,2013-02-12 15:41:00,
2013-02-12 08:52:00,3.0,-1.0,30.18,NNE,19,3.0,-999.0,83,-99.99,,,-99.99,,2013-02-12 15:52:00,
2013-02-12 09:01:00,2.0,-2.0,30.18,NNE,19,2.0,-999.0,81,-99.99,,,-99.99,,2013-02-12 16:01:00,
2013-02-12 09:11:00,2.0,-2.0,30.18,NNE,19,2.0,-999.0,81,-99.99,,,-99.99,,2013-02-12 16:11:00,
2013-02-12 09:21:00,2.0,-2.0,30.20,NNE,19,2.0,-999.0,81,-99.99,,,-99.99,,2013-02-12 16:21:00,
2013-02-12 09:31:00,2.0,-2.0,30.21,NNE,19,3.0,-999.0,82,-99.99,,,-99.99,,2013-02-12 16:31:00,
2013-02-12 09:41:00,2.0,-2.0,30.21,NNE,19,3.0,-999.0,82,-99.99,,,-99.99,,2013-02-12 16:41:00,
2013-02-12 09:52:00,4.0,0.0,30.20,NNE,19,1.0,-999.0,82,-99.99,,,-99.99,,2013-02-12 16:52:00,
2013-02-12 10:01:00,6.0,1.0,30.20,NNE,15,1.0,-999.0,81,-99.99,,,-99.99,,2013-02-12 17:01:00,
2013-02-12 10:11:00,6.0,1.0,30.20,NNE,15,1.0,-999.0,81,-99.99,,,-99.99,,2013-02-12 17:11:00,
2013-02-12 10:21:00,7.0,2.0,30.19,NNE,15,1.0,-999.0,79,-99.99,,,-99.99,,2013-02-12 17:21:00,
2013-02-12 10:31:00,8.0,3.0,30.19,NNE,15,0.0,-999.0,81,-99.99,,,-99.99,,2013-02-12 17:31:00,
2013-02-12 10:41:00,8.0,3.0,30.19,NNE,15,0.0,-999.0,81,-99.99,,,-99.99,,2013-02-12 17:41:00,
2013-02-12 10:52:00,11.0,6.0,30.19,NNE,15,0.0,-999.0,78,-99.99,,,-99.99,,2013-02-12 17:52:00,
2013-02-12 11:01:00,9.0,3.0,30.19,NNE,24,2.0,-999.0,77,-99.99,,,-99.99,,2013-02-12 18:01:00,
2013-02-12 11:11:00,9.0,4.0,30.18,NNE,24,1.0,-999.0,81,-99.99,,,-99.99,,2013-02-12 18:11:00,
2013-02-12 11:22:00,9.0,4.0,30.18,NNE,24,1.0,-999.0,81,-99.99,,,-99.99,,2013-02-12 18:22:00,
2013-02-12 11:31:00,11.0,6.0,30.17,East,86,3.0,-999.0,80,-99.99,,,-99.99,,2013-02-12 18:31:00,
2013-02-12 11:41:00,11.0,6.0,30.17,East,86,3.0,-999.0,80,-99.99,,,-99.99,,2013-02-12 18:41:00,
2013-02-12 11:52:00,12.0,6.0,30.20,East,86,1.0,-999.0,78,-99.99,,,-99.99,,2013-02-12 18:52:00,
2013-02-12 12:01:00,14.0,8.0,30.19,East,86,1.0,-999.0,77,-99.99,,,-99.99,,2013-02-12 19:01:00,
2013-02-12 12:11:00,15.0,9.0,30.18,East,86,1.0,-999.0,75,-99.99,,,-99.99,,2013-02-12 19:11:00,
2013-02-12 12:21:00,15.0,9.0,30.18,East,86,1.0,-999.0,75,-99.99,,,-99.99,,2013-02-12 19:21:00,
2013-02-12 12:31:00,16.0,8.0,30.18,East,86,1.0,-999.0,71,-99.99,,,-99.99,,2013-02-12 19:31:00,
2013-02-12 12:41:00,17.0,9.0,30.17,East,86,1.0,-999.0,71,-99.99,,,-99.99,,2013-02-12 19:41:00,
2013-02-12 12:52:00,17.0,9.0,30.17,East,86,1.0,-999.0,71,-99.99,,,-99.99,,2013-02-12 19:52:00,
2013-02-12 13:01:00,18.0,10.0,30.16,East,86,0.0,-999.0,70,-99.99,,,-99.99,,2013-02-12 20:01:00,
2013-02-12 13:11:00,18.0,10.0,30.16,East,86,0.0,-999.0,70,-99.99,,,-99.99,,2013-02-12 20:11:00,
2013-02-12 13:21:00,17.0,10.0,30.15,East,86,2.0,-999.0,73,-99.99,,,-99.99,,2013-02-12 20:21:00,
2013-02-12 13:31:00,16.0,9.0,30.15,East,86,2.0,-999.0,75,-99.99,,,-99.99,,2013-02-12 20:31:00,
2013-02-12 13:41:00,16.0,9.0,30.15,East,86,2.0,-999.0,75,-99.99,,,-99.99,,2013-02-12 20:41:00,
2013-02-12 13:52:00,17.0,10.0,30.14,East,86,1.0,-999.0,75,-99.99,,,-99.99,,2013-02-12 20:52:00,
2013-02-12 14:01:00,18.0,11.0,30.13,East,86,0.0,-999.0,73,-99.99,,,-99.99,,2013-02-12 21:01:00,
2013-02-12 14:11:00,18.0,11.0,30.13,East,86,0.0,-999.0,73,-99.99,,,-99.99,,2013-02-12 21:11:00,
2013-02-12 14:21:00,20.0,12.0,30.13,East,86,0.0,-999.0,70,-99.99,,,-99.99,,2013-02-12 21:21:00,
2013-02-12 14:31:00,22.0,12.0,30.14,East,86,0.0,-999.0,66,-99.99,,,-99.99,,2013-02-12 21:31:00,
2013-02-12 14:41:00,21.0,12.0,30.14,East,86,1.0,-999.0,68,-99.99,,,-99.99,,2013-02-12 21:41:00,
2013-02-12 14:51:00,21.0,12.0,30.14,East,86,1.0,-999.0,68,-99.99,,,-99.99,,2013-02-12 21:51:00,
2013-02-12 15:01:00,20.0,12.0,30.14,East,86,1.0,-999.0,71,-99.99,,,-99.99,,2013-02-12 22:01:00,
2013-02-12 15:11:00,20.0,12.0,30.14,East,86,1.0,-999.0,71,-99.99,,,-99.99,,2013-02-12 22:11:00,
2013-02-12 15:21:00,20.0,12.0,30.14,East,86,1.0,-999.0,72,-99.99,,,-99.99,,2013-02-12 22:21:00,
2013-02-12 15:31:00,20.0,12.0,30.14,East,86,0.0,-999.0,72,-99.99,,,-99.99,,2013-02-12 22:31:00,
2013-02-12 15:41:00,20.0,12.0,30.14,East,86,0.0,-999.0,72,-99.99,,,-99.99,,2013-02-12 22:41:00,
2013-02-12 15:52:00,20.0,13.0,30.14,East,86,1.0,-999.0,73,-99.99,,,-99.99,,2013-02-12 22:52:00,
2013-02-12 16:01:00,19.0,12.0,30.13,East,86,1.0,-999.0,75,-99.99,,,-99.99,,2013-02-12 23:01:00,
2013-02-12 16:11:00,19.0,13.0,30.14,East,86,1.0,-999.0,76,-99.99,,,-99.99,,2013-02-12 23:11:00,
2013-02-12 16:21:00,19.0,13.0,30.14,East,86,1.0,-999.0,76,-99.99,,,-99.99,,2013-02-12 23:21:00,
2013-02-12 16:31:00,19.0,13.0,30.13,East,86,1.0,-999.0,76,-99.99,,,-99.99,,2013-02-12 23:31:00,
2013-02-12 16:41:00,19.0,13.0,30.13,East,86,1.0,-999.0,76,-99.99,,,-99.99,,2013-02-12 23:41:00,
2013-02-12 16:52:00,20.0,14.0,30.12,East,86,0.0,-999.0,76,-99.99,,,-99.99,,2013-02-12 23:52:00,
2013-02-12 17:02:00,20.0,14.0,30.12,East,86,1.0,-999.0,76,-99.99,,,-99.99,,2013-02-13 00:02:00,
2013-02-12 17:11:00,20.0,14.0,30.12,East,86,1.0,-999.0,76,-99.99,,,-99.99,,2013-02-13 00:11:00,
2013-02-12 17:21:00,19.0,13.0,30.11,East,86,0.0,-999.0,78,-99.99,,,-99.99,,2013-02-13 00:21:00,
2013-02-12 17:32:00,19.0,14.0,30.11,East,86,0.0,-999.0,80,-99.99,,,-99.99,,2013-02-13 00:32:00,
2013-02-12 17:41:00,19.0,14.0,30.11,East,86,0.0,-999.0,80,-99.99,,,-99.99,,2013-02-13 00:41:00,
2013-02-12 17:52:00,19.0,14.0,30.11,East,86,0.0,-999.0,81,-99.99,,,-99.99,,2013-02-13 00:52:00,
2013-02-12 18:01:00,18.0,13.0,30.11,East,86,1.0,-999.0,82,-99.99,,,-99.99,,2013-02-13 01:01:00,
2013-02-12 18:11:00,18.0,13.0,30.11,East,86,1.0,-999.0,82,-99.99,,,-99.99,,2013-02-13 01:11:00,
2013-02-12 18:21:00,18.0,14.0,30.12,East,86,0.0,-999.0,83,-99.99,,,-99.99,,2013-02-13 01:21:00,
2013-02-12 18:31:00,18.0,14.0,30.12,NW,322,2.0,-999.0,83,-99.99,,,-99.99,,2013-02-13 01:31:00,
2013-02-12 18:42:00,18.0,14.0,30.13,NW,326,1.0,-999.0,84,-99.99,,,-99.99,,2013-02-13 01:42:00,
2013-02-12 18:52:00,18.0,14.0,30.13,NW,326,1.0,-999.0,84,-99.99,,,-99.99,,2013-02-13 01:52:00,
2013-02-12 19:01:00,18.0,15.0,30.13,NW,326,1.0,-999.0,86,-99.99,,,-99.99,,2013-02-13 02:01:00,
2013-02-12 19:11:00,18.0,15.0,30.13,NW,326,1.0,-999.0,86,-99.99,,,-99.99,,2013-02-13 02:11:00,
2013-02-12 19:21:00,18.0,14.0,30.13,NW,326,1.0,-999.0,85,-99.99,,,-99.99,,2013-02-13 02:21:00,
2013-02-12 19:31:00,19.0,15.0,30.14,NNW,340,2.0,-999.0,84,-99.99,,,-99.99,,2013-02-13 02:31:00,
2013-02-12 19:41:00,19.0,15.0,30.14,NNW,340,2.0,-999.0,84,-99.99,,,-99.99,,2013-02-13 02:41:00,
2013-02-12 19:52:00,19.0,15.0,30.17,NNW,344,3.0,-999.0,85,-99.99,,,-99.99,,2013-02-13 02:52:00,
2013-02-12 20:01:00,19.0,15.0,30.17,NNW,340,3.0,-999.0,85,-99.99,,,-99.99,,2013-02-13 03:01:00,
2013-02-12 20:11:00,19.0,15.0,30.16,North,5,1.0,-999.0,85,-99.99,,,-99.99,,2013-02-13 03:11:00,
2013-02-12 20:21:00,19.0,15.0,30.16,North,5,1.0,-999.0,85,-99.99,,,-99.99,,2013-02-13 03:21:00,
2013-02-12 20:31:00,18.0,15.0,30.16,North,5,1.0,-999.0,86,-99.99,,,-99.99,,2013-02-13 03:31:00,
2013-02-12 20:41:00,18.0,15.0,30.16,North,5,1.0,-999.0,86,-99.99,,,-99.99,,2013-02-13 03:41:00,
2013-02-12 20:51:00,18.0,15.0,30.16,North,5,0.0,-999.0,87,-99.99,,,-99.99,,2013-02-13 03:51:00,
2013-02-12 21:01:00,18.0,15.0,30.16,North,5,0.0,-999.0,87,-99.99,,,-99.99,,2013-02-13 04:01:00,
2013-02-12 21:11:00,18.0,15.0,30.16,North,5,0.0,-999.0,87,-99.99,,,-99.99,,2013-02-13 04:11:00,
2013-02-12 21:21:00,18.0,15.0,30.16,North,5,0.0,-999.0,88,-99.99,,,-99.99,,2013-02-13 04:21:00,
2013-02-12 21:31:00,18.0,15.0,30.17,North,5,0.0,-999.0,88,-99.99,,,-99.99,,2013-02-13 04:31:00,
2013-02-12 21:41:00,18.0,15.0,30.17,North,5,0.0,-999.0,88,-99.99,,,-99.99,,2013-02-13 04:41:00,
2013-02-12 21:51:00,18.0,15.0,30.16,North,5,1.0,-999.0,88,-99.99,,,-99.99,,2013-02-13 04:51:00,
2013-02-12 22:01:00,18.0,15.0,30.16,North,5,1.0,-999.0,88,-99.99,,,-99.99,,2013-02-13 05:01:00,
2013-02-12 22:11:00,18.0,15.0,30.16,North,5,1.0,-999.0,88,-99.99,,,-99.99,,2013-02-13 05:11:00,
2013-02-12 22:21:00,18.0,15.0,30.16,North,5,1.0,-999.0,88,-99.99,,,-99.99,,2013-02-13 05:21:00,